TimeCST,TemperatureF,Dew PointF,Humidity,Sea Level PressureIn,VisibilityMPH,Wind Direction,Wind SpeedMPH,Gust SpeedMPH,PrecipitationIn,Events,Conditions,WindDirDegrees,DateUTC
12:53 AM,34.0,23.0,64,30.28,10.0,NNW,12.7,20.7,N/A,,Clear,330,2014-01-03 06:53:00
1:53 AM,32.0,21.0,64,30.30,10.0,NNW,13.8,23.0,N/A,,Clear,340,2014-01-03 07:53:00
2:53 AM,30.0,19.0,64,30.31,10.0,NNW,11.5,19.6,N/A,,Clear,340,2014-01-03 08:53:00
3:53 AM,30.0,18.0,61,30.32,10.0,North,9.2,-,N/A,,Clear,350,2014-01-03 09:53:00
4:53 AM,28.9,18.0,64,30.35,10.0,North,10.4,16.1,N/A,,Clear,360,2014-01-03 10:53:00
5:53 AM,28.0,16.0,61,30.38,10.0,North,10.4,17.3,N/A,,Clear,360,2014-01-03 11:53:00
6:53 AM,27.0,15.1,61,30.41,10.0,North,9.2,17.3,N/A,,Clear,360,2014-01-03 12:53:00
7:53 AM,28.0,16.0,61,30.43,10.0,North,9.2,18.4,N/A,,Clear,360,2014-01-03 13:53:00
8:53 AM,30.9,15.1,52,30.43,10.0,North,15.0,24.2,N/A,,Clear,10,2014-01-03 14:53:00
9:53 AM,34.0,15.1,46,30.43,10.0,North,11.5,19.6,N/A,,Clear,360,2014-01-03 15:53:00
10:53 AM,37.9,15.1,39,30.40,10.0,North,13.8,20.7,N/A,,Clear,10,2014-01-03 16:53:00
11:53 AM,41.0,16.0,36,30.36,10.0,North,13.8,23.0,N/A,,Clear,10,2014-01-03 17:53:00
12:53 PM,43.0,15.1,32,30.35,10.0,North,13.8,20.7,N/A,,Clear,10,2014-01-03 18:53:00
1:53 PM,44.1,15.1,31,30.33,10.0,NNE,10.4,18.4,N/A,,Clear,20,2014-01-03 19:53:00
2:53 PM,45.0,15.1,30,30.32,10.0,NNE,9.2,18.4,N/A,,Clear,20,2014-01-03 20:53:00
3:53 PM,44.1,16.0,32,30.32,10.0,North,8.1,-,N/A,,Clear,10,2014-01-03 21:53:00
4:53 PM,39.0,16.0,39,30.34,10.0,NNE,5.8,-,N/A,,Clear,30,2014-01-03 22:53:00
5:53 PM,33.1,23.0,66,30.36,10.0,North,3.5,-,N/A,,Clear,350,2014-01-03 23:53:00
6:53 PM,34.0,19.0,54,30.37,10.0,North,4.6,-,N/A,,Clear,360,2014-01-04 00:53:00
7:53 PM,32.0,19.0,59,30.38,10.0,Calm,Calm,-,N/A,,Clear,0,2014-01-04 01:53:00
8:53 PM,27.0,21.0,78,30.39,10.0,Calm,Calm,-,N/A,,Clear,0,2014-01-04 02:53:00
9:53 PM,25.0,21.9,88,30.38,10.0,Calm,Calm,-,N/A,,Clear,0,2014-01-04 03:53:00
10:53 PM,24.1,21.0,88,30.38,10.0,Calm,Calm,-,N/A,,Clear,0,2014-01-04 04:53:00
11:53 PM,24.1,21.0,88,30.35,10.0,Calm,Calm,-,N/A,,Clear,0,2014-01-04 05:53:00